Wind_Speed
16 16 16 16 16 16 16 16 17 17 17 18 18 18 19 19 20 20 20 20 21 21 21 21 22 22 22 22 22 22 22 22 23 23 23 23 23 24
19 19 19 19 19 19 19 20 20 20 21 21 22 22 22 23 23 24 24 24 24 24 24 25 25 25 25 25 25 25 25 25 25 25 25 25 25 25
21 21 21 22 22 23 23 23 23 24 25 25 26 26 26 26 27 27 28 28 28 28 28 28 28 28 28 29 28 28 28 28 28 28 28 28 28 28
23 23 24 24 25 26 26 27 27 27 28 28 29 30 31 31 31 31 32 32 32 32 32 32 32 32 32 32 32 31 31 31 31 31 31 31 31 31
25 26 27 27 28 28 29 30 30 31 31 32 33 34 34 34 35 35 35 35 35 35 35 35 35 36 35 35 35 35 34 34 34 34 34 34 34 34
28 29 29 30 31 32 32 33 33 33 34 35 36 37 37 37 37 37 38 38 38 39 38 38 38 39 38 38 38 37 37 37 37 37 37 37 37 37
31 32 32 33 34 35 35 36 36 37 37 38 39 39 40 40 40 40 40 40 40 41 41 41 41 41 41 41 40 40 41 41 40 40 40 40 40 40
33 34 35 36 37 37 38 38 39 40 40 41 41 42 42 43 43 43 43 43 42 43 43 42 43 43 44 44 44 43 44 44 44 43 43 43 42 42
35 37 37 38 39 39 39 40 42 43 43 43 44 44 45 45 46 46 46 46 45 45 46 45 46 46 47 47 47 47 47 47 47 47 46 45 45 45
37 38 39 40 40 41 41 42 42 43 44 45 46 46 47 47 48 48 48 48 48 48 49 49 49 49 49 49 50 50 51 51 51 50 50 49 49 48
39 40 41 42 43 43 44 43 43 44 45 46 46 47 47 49 50 51 51 52 51 51 52 53 53 53 53 53 53 52 52 53 53 53 53 53 52 52
40 41 42 43 44 44 45 45 45 46 47 47 48 49 50 51 51 52 53 54 54 53 54 54 54 55 55 54 54 55 55 55 55 55 55 55 55 55
41 42 43 43 44 44 45 46 47 48 49 50 50 51 52 52 54 54 54 55 55 55 56 56 56 57 57 57 56 56 56 56 55 55 55 55 55 56
43 44 45 45 46 46 48 49 50 51 52 52 53 53 53 54 55 55 55 55 55 56 57 58 58 57 57 57 56 55 55 55 55 55 55 55 55 55
44 45 46 48 49 50 50 51 52 53 54 54 54 54 55 56 56 56 56 56 56 57 57 57 57 58 58 57 57 56 56 55 55 55 55 55 55 55
47 48 50 51 51 52 52 53 53 54 54 54 55 55 56 57 58 58 58 58 58 57 57 57 57 57 57 57 57 56 56 55 55 54 54 53 54 54
49 50 51 52 52 53 53 53 54 54 55 55 55 55 55 57 57 58 58 57 57 56 56 56 56 56 55 56 55 55 55 54 53 53 53 52 51 51
50 51 51 52 52 53 53 54 54 55 55 56 56 56 56 56 56 56 56 55 55 54 54 54 54 55 54 53 52 52 51 51 51 51 50 49 48 47
50 50 51 51 52 52 53 53 54 55 55 55 55 55 55 54 55 55 54 54 53 52 52 51 51 50 50 49 48 49 48 48 48 47 46 46 45 44
50 50 50 51 51 51 51 52 52 52 52 52 52 51 51 51 51 51 50 50 49 48 47 46 46 45 45 44 43 43 44 44 44 43 43 42 41 41
49 49 49 49 49 49 50 50 50 50 50 50 49 49 49 49 48 46 45 43 42 41 40 40 40 40 40 40 40 39 39 39 39 39 38 38 38 38
45 45 46 47 47 47 47 47 47 47 47 46 46 45 45 44 43 41 40 39 38 37 37 36 36 36 36 36 36 35 35 34 34 34 34 34 34 33
42 43 43 43 43 44 44 44 44 43 42 42 41 41 40 40 39 38 37 36 35 35 34 33 33 32 32 32 32 31 30 29 29 29 28 28 28 27
Wind_Direction
254 255 256 258 260 264 268 272 275 277 278 279 281 283 284 285 286 288 288 289 289 290 290 290 290 290 290 288 287 286 285 285 284 283 283 282 281 279
258 257 258 260 263 266 268 272 275 278 279 280 281 282 283 283 284 284 285 286 286 286 287 288 288 288 288 287 287 285 285 285 284 283 282 281 280 279
260 262 262 263 265 267 269 272 275 277 279 280 281 282 283 284 284 284 284 285 285 285 285 285 286 285 285 286 286 285 285 284 284 283 282 281 280 278
263 264 266 266 268 269 270 273 275 277 279 280 281 282 283 284 284 284 283 283 284 285 284 283 283 283 283 284 283 283 283 282 282 282 282 281 280 279
266 267 268 269 269 270 271 273 275 277 279 279 281 282 283 283 283 283 284 283 283 284 284 283 283 283 283 283 282 282 282 281 281 281 281 281 280 279
268 269 270 270 271 272 272 274 275 277 278 279 280 280 281 282 283 283 284 284 284 283 283 283 283 282 282 281 281 281 281 281 281 281 280 280 280 279
269 270 270 272 273 273 273 273 274 276 278 279 280 280 281 282 282 282 283 284 283 283 283 283 283 282 282 281 281 280 280 280 280 280 279 279 279 279
270 272 273 274 275 275 274 275 276 277 278 279 280 280 280 280 280 281 281 282 282 281 281 282 282 283 282 281 280 280 280 280 279 279 278 278 279 278
271 273 274 275 275 275 276 276 277 278 278 279 280 281 280 280 280 280 280 281 281 281 281 281 282 282 281 281 281 280 281 281 280 279 279 278 278 277
275 276 276 276 276 276 277 277 278 279 278 279 280 280 281 281 281 281 281 281 281 281 282 282 282 281 281 281 281 280 281 280 280 280 279 278 277 276
278 278 277 276 276 276 277 279 280 280 280 280 281 282 283 283 283 283 282 282 281 281 282 282 282 281 282 282 281 280 280 280 280 279 279 278 277 276
279 279 278 278 277 278 278 279 280 281 282 282 282 282 283 284 284 285 284 282 282 282 283 283 282 282 282 282 282 281 280 280 279 278 277 277 277 276
279 279 279 279 280 280 280 281 282 283 283 283 284 284 284 284 284 284 284 284 283 283 283 283 282 282 281 281 281 281 280 279 279 278 277 278 277 277
279 279 279 279 281 281 281 282 283 284 284 284 283 284 284 285 285 285 284 284 284 284 284 283 283 282 282 282 282 282 281 280 280 280 280 279 278 278
279 280 281 281 281 282 282 283 283 283 283 284 284 283 284 285 285 285 286 286 286 286 286 285 284 284 283 283 282 282 282 281 281 282 281 279 278 277
279 280 281 281 282 282 283 283 284 284 284 285 285 284 285 285 285 286 286 287 287 286 287 286 286 285 284 283 282 282 282 281 281 281 280 279 278 277
282 282 282 282 282 283 283 284 285 285 285 285 285 285 285 286 286 286 287 287 287 286 286 286 286 285 284 284 283 282 281 280 280 280 279 279 278 277
283 283 283 284 283 284 284 284 284 285 286 286 286 286 286 286 287 287 287 287 287 287 286 285 285 285 284 283 283 282 280 279 278 278 278 278 277 276
285 286 286 286 285 285 285 285 285 285 285 285 286 287 288 288 287 288 288 288 288 287 286 286 286 285 285 285 284 284 283 281 280 279 278 277 276 275
287 287 287 287 287 286 287 287 286 286 285 286 286 287 288 289 289 289 289 288 288 287 287 287 287 287 288 287 285 285 283 282 281 279 277 276 275 274
288 288 288 288 288 288 288 287 286 286 287 287 287 287 288 289 289 289 289 288 288 288 288 288 288 288 287 287 287 287 285 282 281 280 278 276 275 274
290 290 289 289 288 288 288 287 287 288 289 289 288 288 288 288 288 287 287 287 287 288 289 289 289 289 289 289 288 287 285 283 282 281 278 276 275 273
292 293 293 292 291 291 290 289 289 289 289 289 289 288 288 287 286 285 286 287 287 287 288 290 289 288 290 291 291 289 287 286 284 283 280 276 274 272
Height
5879 5880 5880 5880 5881 5881 5881 5881 5881 5880 5879 5879 5878 5877 5876 5875 5874 5873 5872 5871 5870 5869 5868 5866 5865 5864 5863 5862 5861 5859 5858 5857 5856 5855 5854 5853 5852 5851
5875 5875 5876 5876 5876 5876 5876 5876 5876 5875 5874 5874 5873 5872 5871 5870 5869 5868 5866 5866 5864 5863 5862 5861 5859 5858 5857 5856 5855 5853 5852 5851 5850 5849 5848 5847 5846 5845
5870 5871 5871 5872 5872 5871 5871 5871 5870 5870 5869 5868 5867 5866 5865 5863 5862 5861 5860 5859 5858 5857 5855 5854 5853 5852 5850 5849 5848 5847 5845 5844 5843 5842 5841 5840 5839 5839
5865 5866 5866 5866 5866 5866 5865 5865 5864 5863 5862 5861 5860 5859 5858 5857 5855 5854 5852 5851 5850 5849 5848 5846 5845 5844 5842 5841 5840 5839 5837 5836 5835 5834 5833 5832 5831 5831
5860 5860 5860 5860 5859 5859 5859 5858 5857 5856 5855 5854 5853 5852 5850 5849 5847 5846 5844 5843 5841 5840 5839 5837 5836 5835 5834 5832 5831 5830 5828 5827 5826 5825 5824 5823 5822 5821
5853 5853 5853 5853 5852 5851 5851 5850 5849 5848 5847 5846 5844 5843 5841 5840 5838 5837 5835 5834 5832 5830 5829 5827 5826 5825 5824 5822 5821 5820 5818 5817 5816 5815 5814 5813 5812 5811
5846 5845 5845 5844 5844 5842 5842 5841 5840 5839 5838 5836 5835 5833 5832 5830 5829 5827 5825 5823 5822 5820 5818 5817 5815 5814 5813 5811 5810 5809 5807 5806 5805 5804 5803 5802 5801 5800
5838 5837 5836 5836 5835 5833 5832 5831 5831 5829 5828 5826 5825 5823 5822 5820 5818 5816 5814 5812 5811 5809 5807 5805 5803 5802 5800 5799 5798 5797 5795 5794 5793 5792 5791 5790 5789 5788
5829 5828 5827 5826 5825 5823 5822 5821 5820 5818 5817 5816 5814 5812 5810 5808 5806 5804 5802 5800 5799 5797 5794 5793 5791 5789 5787 5786 5785 5784 5782 5780 5779 5778 5777 5776 5775 5774
5820 5818 5817 5815 5814 5813 5811 5810 5808 5807 5805 5803 5802 5800 5798 5795 5793 5791 5789 5787 5786 5784 5781 5780 5778 5776 5774 5772 5771 5769 5767 5765 5764 5763 5762 5762 5761 5760
5809 5808 5806 5805 5804 5802 5801 5799 5797 5796 5793 5791 5789 5787 5784 5782 5780 5777 5775 5773 5772 5770 5767 5765 5763 5761 5759 5757 5755 5753 5752 5750 5748 5747 5746 5745 5744 5743
5799 5797 5796 5794 5792 5790 5788 5787 5785 5783 5780 5777 5775 5773 5771 5768 5765 5763 5760 5757 5756 5754 5752 5749 5747 5744 5743 5741 5739 5737 5735 5734 5732 5730 5729 5728 5727 5725
5788 5786 5784 5782 5780 5778 5776 5774 5772 5769 5766 5764 5761 5758 5756 5753 5750 5747 5745 5742 5739 5738 5735 5732 5730 5727 5725 5724 5722 5720 5717 5716 5714 5713 5712 5711 5709 5707
5777 5774 5772 5770 5768 5765 5763 5761 5758 5755 5752 5749 5747 5744 5741 5738 5734 5731 5728 5725 5723 5721 5718 5715 5712 5710 5707 5706 5705 5702 5699 5697 5695 5694 5693 5692 5691 5690
5765 5762 5760 5757 5755 5752 5749 5746 5743 5740 5737 5734 5731 5728 5725 5722 5718 5714 5711 5709 5706 5703 5700 5697 5694 5692 5689 5688 5686 5684 5682 5680 5677 5676 5674 5673 5672 5671
5752 5749 5747 5743 5740 5738 5734 5731 5728 5725 5721 5718 5715 5712 5708 5705 5701 5698 5694 5691 5689 5686 5683 5679 5676 5674 5671 5669 5667 5665 5663 5661 5660 5658 5656 5655 5653 5652
5738 5735 5732 5729 5725 5722 5719 5716 5712 5709 5706 5702 5699 5695 5691 5688 5684 5680 5677 5674 5671 5668 5665 5662 5659 5656 5653 5651 5649 5647 5645 5643 5641 5640 5638 5637 5636 5634
5723 5720 5717 5713 5710 5707 5703 5699 5696 5693 5689 5686 5682 5679 5675 5671 5667 5663 5660 5656 5653 5651 5648 5645 5641 5639 5636 5634 5631 5629 5627 5625 5624 5622 5621 5620 5620 5619
5708 5704 5701 5698 5694 5691 5687 5683 5680 5676 5673 5669 5665 5662 5658 5655 5651 5647 5643 5640 5637 5634 5631 5628 5625 5622 5620 5618 5616 5611 5610 5608 5607 5606 5605 5603 5603 5603
5693 5689 5686 5682 5678 5675 5671 5667 5664 5660 5656 5653 5649 5646 5642 5639 5635 5632 5628 5625 5622 5619 5616 5613 5610 5607 5604 5602 5601 5598 5594 5592 5591 5590 5589 5588 5588 5587
5677 5673 5670 5666 5663 5659 5655 5651 5648 5644 5641 5637 5634 5631 5627 5624 5621 5617 5614 5611 5608 5605 5603 5600 5597 5594 5591 5588 5587 5585 5582 5579 5577 5576 5575 5574 5574 5574
5663 5659 5655 5651 5647 5643 5640 5636 5633 5629 5626 5622 5619 5616 5613 5610 5607 5604 5601 5599 5596 5594 5591 5588 5586 5583 5580 5577 5574 5572 5570 5567 5565 5563 5562 5562 5561 5562
5649 5645 5641 5637 5633 5629 5626 5622 5619 5615 5612 5609 5605 5602 5599 5596 5594 5591 5589 5587 5584 5582 5580 5577 5575 5572 5569 5566 5564 5561 5559 5556 5554 5553 5553 5551 5551 5551